Wind_Speed
9 9 10 11 11 10 9 8 8 7 6 5 5 4 5 6 8 8 9 9 8 7 7 7 8 8 9 10 11 12 13 14 14 16 17 19 20 21 20 19 18 17 16 15 16 16 16 17 18 20 21 20 19 18 17 16 15 16 18 19 19 19 18 16 16 16 16 16 15 14 13 12 11 10
8 9 10 11 12 12 11 10 10 9 7 6 5 6 6 7 8 9 10 10 8 8 8 8 8 9 9 9 10 12 13 14 14 14 17 18 19 20 20 19 17 17 17 17 17 18 18 19 20 20 19 18 17 16 15 14 16 18 20 20 21 20 19 18 17 16 16 15 14 13 12 12 11 9
8 8 9 9 10 11 11 11 11 10 9 8 7 8 8 8 8 9 11 11 9 8 7 7 8 9 9 9 10 11 12 13 12 13 15 17 19 20 20 19 18 17 18 19 19 20 20 20 20 19 18 16 15 15 15 16 17 19 21 22 22 20 18 17 16 16 16 15 15 13 12 11 10 9
10 9 9 9 9 9 10 11 11 11 10 10 10 10 10 10 10 10 11 13 12 9 7 7 7 9 9 9 10 10 11 11 11 12 15 17 19 20 20 19 18 19 20 21 21 20 19 19 20 19 18 16 16 17 17 18 18 20 22 23 22 19 17 16 16 17 18 17 16 15 13 12 10 9
11 10 9 9 9 9 9 10 11 12 12 11 12 12 12 12 12 12 12 14 14 11 7 7 7 7 8 8 9 10 10 10 10 11 14 17 19 20 19 19 19 20 21 22 21 20 20 21 21 20 18 18 18 18 19 19 20 21 23 23 20 18 17 18 19 20 20 20 20 19 18 16 13 10
12 11 10 10 10 10 10 10 11 13 13 13 14 14 14 14 14 13 13 14 14 13 10 8 8 7 8 8 9 10 10 10 10 11 14 16 18 19 19 19 19 21 22 22 21 21 22 22 22 20 18 18 18 19 19 20 21 23 25 23 20 18 19 20 21 22 22 23 23 22 21 19 17 13
13 13 12 11 11 11 11 11 12 13 14 16 17 17 17 16 16 15 14 14 14 14 12 10 9 9 9 9 9 10 10 10 10 11 13 16 17 19 19 19 19 20 22 22 21 22 23 22 21 19 18 17 17 18 19 20 22 24 25 22 19 19 20 21 22 23 23 24 24 23 22 21 19 16
14 14 14 13 13 13 13 13 13 14 15 15 16 16 16 16 15 14 14 13 13 15 14 12 11 10 10 10 10 10 10 10 10 11 13 15 17 17 19 19 19 19 22 23 22 22 22 22 20 19 18 17 17 18 19 20 23 24 24 21 19 20 20 21 23 24 24 25 24 23 22 21 19 18
14 14 15 14 14 14 14 14 14 14 15 15 15 15 14 13 13 13 13 13 13 14 15 14 13 12 12 11 11 10 11 11 11 11 12 14 16 17 17 18 18 18 20 23 23 23 22 21 20 19 19 18 18 19 20 21 23 24 22 20 19 20 21 21 23 24 25 25 24 24 23 22 20 18
16 15 15 15 14 15 15 15 15 15 15 15 15 15 14 13 13 13 13 13 14 14 15 15 15 14 13 13 12 11 11 12 12 13 13 13 15 16 16 17 17 16 18 22 24 22 21 21 20 19 19 19 19 20 21 22 23 23 21 19 19 20 21 21 23 24 25 25 24 24 24 23 21 20
17 17 17 16 15 16 15 15 15 15 15 16 16 15 15 14 14 14 14 14 15 15 16 17 17 16 15 14 14 13 12 12 13 14 15 14 15 16 17 17 17 16 17 20 23 22 21 20 20 19 19 18 19 20 21 22 23 22 20 19 19 20 21 22 23 24 24 24 24 24 24 23 22 20
18 18 18 18 17 17 16 16 15 15 15 16 16 16 16 15 15 15 15 15 16 16 17 18 18 18 17 15 14 14 14 13 13 14 15 16 16 16 17 16 16 16 16 17 20 22 22 20 20 19 18 18 19 19 21 22 22 21 20 19 19 20 21 22 23 24 24 24 24 23 23 23 22 21
19 18 19 20 20 18 17 17 17 17 17 16 17 17 16 16 16 16 16 16 17 17 18 19 19 19 19 17 16 15 15 14 13 13 15 16 17 17 17 16 15 15 16 15 16 19 21 20 19 19 19 19 19 19 20 21 21 20 19 18 19 20 21 23 23 24 24 24 24 23 22 22 21 21
20 19 20 20 21 21 20 19 19 18 18 17 17 17 17 17 17 17 17 17 18 18 19 19 20 20 20 19 17 17 16 15 14 13 14 15 17 18 19 17 15 14 15 16 16 18 20 19 19 19 19 19 19 19 20 21 21 20 19 18 19 20 21 22 23 24 24 24 23 22 21 21 21 20
23 22 21 21 22 22 22 22 22 21 20 19 19 19 19 19 19 19 19 19 19 19 20 20 20 21 21 20 17 17 18 17 14 13 13 14 16 17 18 19 18 16 15 17 18 18 20 21 20 20 20 19 19 19 20 21 20 20 19 18 19 20 21 22 23 24 24 24 23 22 21 20 20 20
25 24 23 23 23 24 24 24 24 24 23 22 21 21 21 21 21 21 21 21 21 21 22 22 22 22 21 20 18 17 17 17 15 14 14 14 15 17 18 19 20 18 17 18 18 17 20 22 21 21 21 20 20 20 20 21 21 20 19 19 19 20 21 22 24 24 25 24 23 21 20 20 20 19
28 27 26 25 25 25 24 25 25 25 24 24 23 23 23 24 24 24 23 23 23 24 24 24 24 22 21 21 20 18 17 17 16 16 16 16 17 18 19 19 20 20 19 19 19 17 20 23 22 21 22 22 21 21 21 21 21 21 20 20 20 20 22 23 24 25 25 25 23 21 21 20 20 19
29 28 27 27 26 26 26 26 26 26 25 25 25 25 25 25 25 25 26 25 25 25 26 26 26 24 22 23 21 19 18 18 18 18 17 18 18 19 20 21 21 21 19 19 20 19 18 21 22 21 22 22 21 22 22 21 21 21 21 21 20 21 22 23 24 25 25 25 23 22 21 20 20 20
30 29 29 28 28 27 27 27 27 26 26 26 26 27 27 27 27 27 27 27 26 26 27 27 27 25 24 23 21 20 19 19 19 19 19 19 19 20 21 22 22 22 20 18 19 19 17 19 22 22 21 21 21 22 22 21 21 21 21 20 20 21 21 22 23 24 25 24 23 22 21 21 20 20
30 30 30 30 29 28 28 28 27 27 26 27 27 28 28 28 28 29 28 27 27 27 27 27 26 26 25 23 21 20 20 20 20 21 21 21 21 21 22 23 22 23 22 19 18 19 17 17 20 21 20 20 21 22 22 21 21 21 20 20 21 21 21 21 22 23 23 22 22 21 21 21 20 20
30 30 30 30 30 29 29 29 28 27 26 27 28 28 28 28 29 30 30 29 28 27 27 27 27 26 25 23 22 21 20 20 20 21 22 22 22 22 23 23 21 19 19 19 18 18 16 16 19 21 20 19 20 21 21 21 21 21 20 20 21 21 21 21 21 22 21 20 20 20 20 20 20 20
31 30 30 30 30 30 30 29 28 27 26 27 28 28 28 28 30 31 30 30 30 29 28 27 27 27 26 24 23 22 22 21 20 21 22 21 20 21 21 21 19 17 17 19 18 16 15 15 18 19 19 20 21 21 20 20 20 21 21 20 20 20 21 21 21 20 19 19 18 19 19 20 20 19
32 31 31 31 31 31 30 29 28 27 27 28 29 28 28 29 31 31 30 29 30 30 29 28 28 28 27 26 26 24 23 23 22 22 21 19 19 20 19 18 18 16 15 17 18 16 14 13 15 17 17 17 18 20 20 19 20 21 21 20 20 20 20 20 20 19 18 18 17 17 18 18 19 18
33 33 33 33 32 32 31 30 29 28 28 29 29 29 29 31 32 31 30 29 29 29 28 28 28 29 29 29 28 27 26 25 24 23 21 20 19 19 18 18 18 17 15 16 18 16 13 12 14 17 17 15 16 19 20 19 20 21 21 20 19 19 19 19 19 19 18 17 17 17 17 17 17 17
34 34 33 33 33 32 31 30 29 29 29 29 29 30 32 32 30 28 27 28 28 28 28 28 28 29 30 30 30 30 28 27 26 24 23 22 21 20 20 19 19 18 17 17 17 15 13 14 16 17 18 18 18 21 21 20 20 20 20 19 18 18 17 17 17 17 17 17 17 16 16 16 16 16
35 35 34 34 32 31 30 29 28 29 29 28 29 31 32 31 28 26 25 26 26 28 29 29 28 29 30 31 31 31 30 28 27 25 24 23 22 21 21 21 20 20 18 18 18 16 15 16 16 17 18 19 19 20 20 19 19 19 19 19 18 17 17 16 16 16 16 17 17 17 16 16 15 15
35 35 35 33 31 29 29 29 28 28 28 28 28 29 30 28 25 23 23 24 25 27 28 28 28 29 29 30 30 30 30 29 27 25 24 23 23 23 23 23 23 22 20 20 20 18 16 17 17 18 19 19 19 20 19 18 19 19 18 18 18 17 17 16 15 15 15 15 15 15 16 16 15 15
34 35 35 33 30 28 28 28 27 26 26 27 27 27 26 25 23 22 23 23 24 26 27 28 29 28 28 28 29 29 28 27 26 25 24 24 25 25 25 24 24 24 22 21 20 19 17 18 20 21 21 20 20 19 17 17 20 20 18 17 18 17 16 16 15 14 14 13 13 13 13 14 14 15
33 34 33 31 28 27 27 27 26 26 26 27 26 26 25 24 23 24 24 24 25 26 28 29 29 28 27 27 27 26 25 25 26 26 26 26 26 25 26 26 26 26 24 22 22 21 20 21 22 22 21 20 20 19 17 17 20 20 18 17 17 17 16 16 14 13 13 12 11 11 12 12 12 13
31 31 30 29 27 26 26 26 26 27 27 26 26 26 25 26 27 27 26 26 27 28 29 29 29 28 26 25 25 25 25 26 27 27 26 26 26 25 26 27 27 27 26 24 23 23 23 23 24 23 21 20 19 20 19 18 19 20 19 17 17 17 16 15 13 13 12 11 11 11 11 11 11 12
31 30 29 28 27 27 27 27 28 28 27 28 28 29 29 30 30 29 29 29 29 29 29 29 30 29 27 26 26 27 27 28 28 27 26 25 25 25 26 26 26 27 27 25 24 24 24 24 24 24 22 21 20 20 19 18 18 20 20 18 16 16 15 14 13 12 11 10 10 10 10 10 11 11
29 28 27 27 28 29 31 31 31 31 32 32 33 33 33 32 32 31 31 30 31 32 31 31 31 32 31 29 28 27 28 28 28 27 27 26 26 26 26 26 26 27 27 27 25 24 23 24 24 24 22 21 20 19 18 18 19 20 20 18 16 16 16 15 13 12 11 10 10 9 9 9 10 11
28 28 29 30 31 33 34 35 35 36 36 36 35 34 34 34 33 33 33 33 34 34 33 32 33 33 33 32 30 29 29 29 29 29 28 27 26 27 28 28 28 28 28 28 26 24 24 25 25 23 22 21 20 19 18 18 18 18 19 18 17 16 16 15 14 13 11 10 9 9 8 9 10 10
31 32 32 33 34 36 38 38 38 38 38 38 38 37 36 35 36 36 36 36 35 35 34 33 33 33 33 33 32 31 31 31 30 30 30 27 26 27 29 30 29 28 29 29 27 26 25 25 25 24 23 22 20 19 19 18 17 17 18 18 17 16 16 15 14 13 11 10 9 8 8 9 10 9
31 32 33 34 35 37 40 41 40 39 39 39 39 38 37 37 37 38 38 37 35 35 35 34 33 33 34 34 34 33 34 33 31 31 30 29 28 29 30 31 30 30 30 30 29 28 27 26 26 26 25 23 22 21 20 18 17 17 18 18 17 16 16 16 15 14 12 11 9 7 7 8 9 10
27 31 33 34 35 37 39 41 40 39 39 39 38 37 37 38 38 38 38 36 34 34 35 34 34 35 35 35 34 34 35 34 32 32 32 31 30 30 31 32 31 31 31 31 30 30 29 28 28 29 28 27 25 23 20 18 17 17 18 18 17 16 16 16 15 14 13 11 9 8 7 6 8 9
28 31 32 33 34 36 38 39 39 38 37 37 37 37 38 39 38 38 36 34 32 33 34 34 35 35 35 34 34 35 35 35 33 33 33 32 31 30 31 32 31 32 32 32 31 31 30 29 29 30 30 30 28 25 20 17 16 17 17 17 17 16 16 16 15 14 13 11 9 9 8 8 9 10
32 32 32 32 33 34 35 36 37 37 36 35 36 37 38 39 38 37 35 33 32 33 34 34 35 35 34 34 34 35 35 35 34 33 33 33 33 32 32 32 32 32 32 31 32 32 31 30 30 31 32 34 32 26 21 18 17 16 16 16 17 17 16 16 15 13 12 11 10 10 10 10 11 12
33 33 33 33 32 33 33 34 35 36 34 33 33 35 37 38 38 37 36 34 33 33 34 35 36 35 34 33 33 33 34 33 33 33 33 33 34 33 32 32 32 31 31 31 32 33 32 31 32 32 33 35 34 27 20 17 15 14 14 14 16 17 17 16 14 13 13 13 12 12 12 13 13 14
35 34 34 34 33 33 33 34 35 35 34 33 32 33 35 37 38 37 36 35 34 33 34 34 34 33 32 31 31 31 32 32 33 33 32 33 34 33 33 33 32 31 32 33 33 35 34 31 30 32 33 34 33 27 19 15 15 14 15 15 16 18 17 16 14 14 14 14 13 13 14 15 16 16
38 37 36 35 35 35 34 35 35 35 34 34 33 32 33 36 37 36 35 35 34 34 33 33 33 32 31 30 30 31 32 32 33 33 33 34 34 34 34 34 32 32 34 35 36 37 34 28 27 29 31 32 32 27 21 19 18 17 16 16 16 17 17 16 16 16 16 15 14 14 15 17 18 19
39 38 38 37 37 37 37 36 36 35 35 35 34 33 33 34 35 35 34 35 36 35 34 34 34 33 32 31 32 32 33 33 33 33 33 34 34 34 35 35 34 35 36 38 39 38 32 26 26 29 31 32 31 27 24 23 21 18 16 16 17 17 17 17 17 17 17 16 15 15 16 17 19 20
38 38 38 38 38 38 38 38 37 37 37 36 36 35 35 35 36 35 34 36 38 38 37 35 35 35 34 34 33 33 33 33 33 33 33 34 33 34 36 35 34 36 37 38 38 36 30 26 26 28 30 32 31 28 26 25 22 18 17 18 18 17 17 17 18 19 19 18 17 18 17 18 19 19
37 38 38 39 38 38 38 39 38 38 38 39 38 37 37 37 38 37 36 37 39 40 38 36 36 36 36 34 33 33 34 33 31 32 33 33 33 34 35 33 32 35 38 36 35 35 31 27 26 27 29 32 31 28 27 26 23 20 20 20 19 17 17 18 19 20 20 20 20 20 20 20 21 22
35 36 37 38 39 38 38 39 39 39 39 40 41 41 38 38 39 39 39 40 41 40 38 37 37 37 36 34 33 33 32 31 30 31 32 32 32 33 34 33 31 33 35 35 36 36 33 28 26 27 27 28 28 27 27 25 24 22 22 22 20 19 20 20 20 20 22 23 23 23 22 23 24 24
Wind_Direction
219 225 228 231 233 237 247 258 260 262 274 291 304 312 322 334 345 349 352 4 13 8 2 355 346 344 342 342 345 344 345 347 346 343 341 341 344 346 345 342 339 335 331 326 320 319 321 323 325 331 336 338 338 338 340 344 351 356 358 358 358 356 353 349 344 340 336 333 332 330 328 331 333 333
220 225 229 232 236 240 244 251 252 251 256 267 279 288 300 315 328 336 338 344 356 360 355 348 340 340 341 340 340 340 339 340 339 336 336 340 343 345 343 339 336 331 325 320 315 317 321 323 329 337 343 345 345 348 351 356 360 0 360 357 354 351 346 342 339 337 337 336 335 333 328 324 322 321
232 232 232 234 238 240 242 244 243 242 247 257 268 277 288 302 312 322 327 328 333 344 347 339 335 333 333 334 332 332 332 330 329 329 332 339 342 344 342 336 331 326 322 317 315 317 322 328 338 348 353 353 355 359 2 3 3 1 358 354 350 348 346 345 345 345 346 346 344 342 337 330 322 316
243 243 242 241 240 240 239 237 237 237 243 253 263 272 283 293 301 310 318 319 321 330 334 328 329 325 321 322 321 322 324 321 320 322 329 337 341 343 342 335 330 327 322 319 318 321 328 338 348 355 358 359 2 5 5 3 0 357 354 351 349 348 350 352 354 354 355 357 358 359 358 354 343 329
244 245 247 247 245 243 241 236 234 237 242 251 260 268 278 286 293 301 309 313 316 321 324 322 326 321 315 316 312 314 318 315 312 317 326 335 340 343 342 337 333 329 323 322 324 330 337 344 351 357 1 3 5 6 4 359 355 352 350 349 349 349 352 354 355 356 359 3 6 8 8 6 0 350
243 243 245 246 245 245 243 239 237 240 244 250 257 265 273 280 287 293 300 305 308 313 319 323 327 323 318 315 309 310 315 313 311 314 323 332 338 341 341 338 335 331 326 327 331 336 342 347 353 359 2 4 4 3 360 355 351 348 348 349 349 350 351 353 354 357 1 5 7 7 6 5 2 358
244 244 244 244 244 245 245 243 242 243 246 250 256 263 269 274 279 285 292 297 300 305 311 317 322 321 319 318 313 311 315 317 316 317 321 329 336 340 338 335 335 331 327 328 333 338 344 350 356 0 2 2 2 359 356 352 349 347 346 347 348 349 350 352 354 356 360 3 5 5 4 3 1 359
246 246 245 244 244 245 245 244 244 245 247 251 256 261 265 270 274 279 284 288 292 297 302 309 315 315 315 316 314 312 315 318 319 318 320 325 331 336 336 333 335 333 327 327 333 340 346 353 358 360 0 358 356 355 353 350 348 346 344 344 346 348 349 351 354 355 358 0 1 2 2 2 0 359
250 249 247 245 243 244 244 244 244 245 247 250 254 259 262 266 270 273 275 279 283 289 295 301 306 308 309 309 310 311 312 314 315 314 316 320 325 332 335 333 333 332 327 326 332 339 345 353 358 358 357 354 352 352 351 350 348 344 342 342 343 345 349 352 354 355 357 357 358 360 1 1 1 0
254 253 251 249 245 243 244 244 245 245 247 250 253 256 260 264 266 267 270 273 277 282 289 295 299 303 304 303 304 306 306 308 310 309 312 315 318 323 332 334 331 329 326 325 329 335 341 349 354 355 353 350 349 349 349 348 346 343 341 340 341 344 348 352 353 355 355 355 356 358 359 1 1 1
259 257 255 253 251 247 245 245 246 247 248 250 253 255 258 261 263 266 269 272 276 280 285 290 294 298 299 299 299 300 300 301 302 304 309 314 314 317 326 332 330 327 325 324 325 329 336 343 348 350 349 347 347 347 347 346 345 343 341 339 340 343 347 351 353 353 353 353 354 356 358 0 1 0
260 259 258 257 255 253 249 247 247 248 249 251 253 255 257 260 262 265 269 272 275 278 282 286 290 294 294 294 294 294 294 294 295 298 304 311 314 315 320 327 328 325 324 324 323 326 331 337 341 343 344 343 343 344 343 343 343 343 341 339 340 343 347 350 352 351 351 351 352 354 357 360 1 1
258 258 258 258 256 255 253 251 249 248 249 251 253 255 258 260 262 264 266 269 272 276 280 284 288 290 291 292 292 291 290 288 288 291 296 302 309 313 317 323 326 322 319 318 318 320 324 330 334 336 338 338 338 338 338 339 342 342 340 339 339 342 346 349 350 349 349 349 349 352 356 360 1 1
257 256 256 256 255 254 252 251 250 249 249 251 253 256 258 259 260 261 263 266 269 274 278 281 285 287 287 289 290 289 287 284 284 287 290 295 301 307 312 317 322 322 318 315 314 315 317 323 328 331 334 335 334 334 334 337 342 342 339 338 338 341 345 347 347 347 348 348 347 348 353 359 2 2
258 257 255 254 254 252 250 248 248 249 250 251 253 255 256 257 258 259 261 264 267 271 275 278 281 282 284 286 287 286 285 283 281 281 285 291 297 302 306 311 317 320 319 316 315 312 312 317 323 327 330 333 331 331 332 335 341 341 337 337 338 340 344 345 345 346 347 347 346 346 351 358 2 3
258 257 255 253 252 251 249 248 248 248 249 250 252 253 254 255 257 258 260 262 265 268 271 274 276 278 281 284 286 286 285 282 279 280 284 288 293 295 297 303 310 315 318 317 316 311 307 310 317 321 324 327 328 329 332 335 339 340 336 335 337 339 342 343 343 345 347 347 346 347 351 356 1 3
257 256 254 253 251 250 249 249 249 248 248 248 249 250 251 253 255 256 258 260 262 264 267 270 272 274 277 280 283 285 283 280 280 283 286 289 291 292 294 298 304 310 313 314 312 308 303 305 311 315 317 321 324 327 331 334 336 337 334 334 336 338 340 342 342 345 347 348 348 349 352 356 359 0
255 254 252 252 251 250 249 248 248 248 248 248 248 248 249 250 252 254 255 256 258 260 262 266 269 272 274 277 280 281 278 276 279 283 286 288 290 292 294 296 299 304 308 308 307 304 300 302 306 309 311 315 320 324 328 332 333 334 333 333 335 337 339 340 342 344 347 349 350 352 353 355 357 357
253 252 251 250 250 249 249 247 247 248 249 249 250 251 251 251 252 252 253 254 256 258 260 262 266 269 271 274 277 278 276 276 278 280 281 282 284 288 292 295 297 299 301 300 299 300 298 297 300 303 306 311 316 320 323 326 329 331 331 331 332 334 336 338 341 344 348 349 350 351 353 353 354 354
250 249 249 249 248 248 248 248 247 248 249 251 252 253 253 254 254 254 254 254 255 257 259 260 263 266 269 272 274 274 274 275 276 277 277 277 279 284 288 292 296 299 300 297 294 296 296 291 292 296 300 306 311 314 316 321 325 327 329 329 330 330 332 335 339 344 348 349 349 350 351 351 352 351
246 246 246 247 247 247 247 247 246 246 248 250 252 254 255 256 256 257 257 257 257 256 258 260 262 264 266 268 268 268 269 270 272 272 274 276 279 281 284 288 291 292 293 293 293 295 291 283 285 291 295 301 306 308 311 316 321 324 325 326 326 326 328 333 337 342 347 348 348 348 349 349 350 350
244 244 243 244 245 246 246 246 246 245 246 248 251 253 255 256 257 258 259 260 260 259 259 260 261 263 264 265 265 265 264 265 264 266 270 274 276 277 279 284 286 285 286 289 293 296 290 283 287 291 293 297 300 302 306 311 316 319 320 321 322 323 325 330 335 340 344 345 345 346 346 347 347 348
242 242 242 242 243 244 245 244 244 244 244 246 249 251 253 255 256 258 259 260 262 263 262 261 261 263 264 264 264 263 261 260 259 260 264 267 269 273 276 278 280 280 281 284 291 295 290 283 285 288 289 292 296 299 304 307 310 313 316 317 318 319 321 326 331 336 339 340 342 344 344 343 344 346
241 240 240 240 241 243 244 243 243 243 243 244 247 249 250 252 254 257 260 260 262 264 264 263 262 262 263 263 263 262 260 258 256 255 258 261 264 268 271 273 275 273 272 277 286 292 286 275 276 280 281 281 286 294 300 301 302 307 311 312 313 314 317 322 327 330 332 335 338 340 340 340 342 344
242 241 240 240 240 242 244 243 243 243 243 243 245 246 249 252 254 256 258 260 261 262 262 261 260 260 261 261 261 261 261 259 256 253 254 257 260 264 267 270 271 270 270 275 283 285 279 272 272 274 275 277 282 289 293 292 295 302 305 306 307 308 310 316 321 324 327 329 332 336 338 339 340 343
242 241 241 240 241 241 243 243 242 243 243 243 244 246 249 252 254 254 256 258 259 260 260 259 259 258 258 258 258 259 260 260 258 255 254 256 258 262 264 266 267 268 271 274 277 277 273 268 266 267 272 277 282 286 287 287 291 297 299 300 302 303 304 309 314 317 321 325 329 334 337 339 342 345
243 242 242 242 241 241 242 242 241 240 242 243 244 245 248 251 253 254 253 253 253 255 258 259 258 257 257 258 258 258 259 260 259 258 257 257 259 260 263 265 267 269 271 271 272 271 267 263 263 265 270 275 278 280 279 281 287 292 294 294 296 296 298 301 305 310 315 321 326 332 336 340 346 349
245 243 243 242 241 240 241 241 241 240 241 243 243 244 245 248 250 249 248 248 249 251 255 256 257 256 256 256 258 260 260 261 261 260 259 259 260 262 263 265 266 267 268 267 267 266 264 265 266 268 268 269 270 272 273 277 282 286 288 289 289 289 291 294 298 302 307 313 319 327 334 341 348 350
246 245 245 244 243 242 241 242 241 239 238 239 240 240 241 243 244 244 245 246 247 249 252 254 257 258 257 257 258 261 262 261 261 261 261 261 262 263 263 263 264 265 265 263 262 261 262 263 265 265 264 261 261 263 266 272 277 280 283 283 282 282 284 286 289 293 297 303 311 320 330 339 345 350
247 248 248 247 245 242 242 242 241 239 237 237 237 237 237 239 240 241 243 244 245 247 250 254 258 259 260 259 259 260 260 260 261 263 265 266 267 267 266 265 264 264 263 262 259 259 260 262 263 260 256 252 252 258 264 268 272 276 278 277 274 274 277 279 280 282 287 295 305 314 325 333 341 347
245 246 247 246 245 244 243 243 242 241 238 236 234 234 234 236 238 240 242 244 246 248 250 254 257 259 260 259 259 260 261 263 265 267 269 270 271 271 268 265 262 262 263 261 258 256 259 263 262 257 251 245 244 251 260 265 268 271 274 272 266 265 268 270 270 272 279 288 298 308 319 329 337 342
246 247 246 246 245 244 244 244 242 240 238 235 233 233 234 236 238 240 243 245 247 248 250 251 253 256 258 258 260 262 264 266 267 268 269 270 271 271 268 262 258 258 260 258 255 253 254 258 258 253 247 243 242 247 255 260 262 265 267 266 262 259 261 261 260 264 272 281 291 302 314 325 332 337
246 246 245 244 244 244 244 244 243 242 241 239 237 235 235 236 239 241 243 245 246 248 250 251 252 255 258 260 261 262 263 265 266 267 268 270 270 269 265 260 256 255 256 256 254 251 251 254 254 249 244 242 243 248 252 254 255 257 261 262 259 256 254 254 253 255 263 272 282 294 305 312 320 329
252 250 247 246 245 246 246 246 244 244 244 243 241 239 238 237 238 241 243 244 246 249 251 253 254 255 256 258 259 260 261 263 265 267 269 270 269 266 264 260 256 254 255 255 252 249 250 252 251 245 239 238 242 246 250 250 251 253 254 255 254 251 249 248 248 250 257 264 271 283 297 305 312 321
257 255 253 250 248 248 249 249 248 247 247 247 246 245 243 241 240 242 243 244 246 248 251 253 253 253 254 255 257 259 261 262 264 266 268 268 266 263 262 260 257 256 257 255 252 251 252 252 250 244 236 233 235 239 242 244 247 249 249 249 248 246 244 243 244 247 252 257 260 268 286 302 311 318
250 250 251 250 250 250 251 252 253 252 251 251 250 248 247 246 243 243 244 246 248 250 252 253 253 252 253 254 255 257 260 262 262 263 264 265 264 263 262 262 260 259 258 256 254 256 257 254 250 244 238 235 233 232 234 239 243 243 244 245 244 241 238 239 242 245 249 254 256 261 271 286 299 309
248 248 250 251 251 252 253 255 256 256 255 254 253 251 249 248 248 247 246 248 250 251 252 254 254 254 253 254 254 256 257 259 259 260 261 263 263 262 262 262 262 261 260 260 260 260 258 254 250 246 242 239 233 226 227 237 240 236 237 239 238 234 231 234 240 244 247 252 257 263 271 280 289 298
253 253 253 253 253 254 255 257 258 259 257 255 254 252 250 250 251 251 250 248 248 249 251 253 253 253 252 252 252 252 253 255 256 257 260 262 262 261 261 263 264 264 263 264 264 263 258 251 249 248 244 240 236 232 230 235 238 238 238 237 233 229 227 229 235 241 247 252 260 268 276 283 289 295
255 255 255 255 254 254 256 257 259 260 259 257 254 252 252 253 253 253 252 249 248 248 250 251 252 253 252 251 251 251 251 252 254 256 259 261 262 262 263 264 266 266 266 266 265 262 256 249 248 249 246 242 243 243 238 236 238 239 236 231 227 226 226 226 228 234 242 250 259 268 277 284 288 291
257 256 256 257 256 256 256 257 258 259 259 258 255 252 253 254 254 254 253 252 250 250 251 252 253 254 253 252 251 251 251 253 255 258 260 262 263 263 263 264 265 265 266 266 263 259 257 255 255 254 248 242 243 244 240 235 234 230 225 225 225 224 224 224 225 230 238 247 256 265 274 281 285 287
258 257 258 258 259 258 258 258 259 260 260 259 256 253 252 254 255 256 255 255 255 255 253 253 253 253 252 252 252 253 255 257 259 262 264 264 265 265 264 264 264 264 264 263 261 261 263 263 259 252 244 240 241 242 238 232 229 227 228 229 225 222 223 226 229 235 243 250 258 266 272 277 281 283
257 258 258 258 258 259 259 260 260 261 261 260 258 254 252 252 254 255 256 258 259 258 256 255 254 253 252 253 254 256 259 261 264 267 268 266 265 265 264 263 262 262 263 263 263 265 266 260 249 242 237 236 238 237 232 230 228 227 229 229 223 221 226 231 235 243 251 257 263 270 275 277 279 280
258 258 259 259 259 260 261 261 262 262 263 263 262 258 255 254 254 254 256 258 259 259 257 256 256 256 256 255 256 258 261 264 267 269 268 266 264 264 263 262 263 265 266 266 265 265 260 248 239 235 232 232 233 231 228 230 227 219 218 223 221 221 227 235 242 250 257 262 268 273 275 275 276 279
261 261 261 262 262 262 262 263 264 264 264 265 264 261 257 256 257 257 257 258 260 260 259 258 258 259 259 259 260 261 262 264 267 267 265 263 264 263 261 261 262 264 264 261 258 256 250 238 231 229 227 228 230 227 225 227 224 216 217 223 224 223 229 236 243 252 260 266 270 273 275 276 277 279
262 263 264 264 264 265 265 265 265 265 265 266 265 262 259 259 261 261 260 260 261 261 261 261 261 261 261 262 263 264 264 264 265 264 262 262 262 262 260 259 257 258 258 255 249 245 240 229 222 222 223 224 227 226 225 226 225 222 224 229 231 233 237 242 247 256 264 268 270 272 274 277 279 282
Height
1620 1621 1622 1622 1623 1623 1624 1624 1625 1625 1626 1626 1626 1626 1625 1626 1626 1626 1625 1625 1625 1624 1624 1624 1623 1623 1622 1621 1620 1619 1618 1617 1616 1614 1613 1612 1610 1609 1607 1606 1605 1604 1602 1601 1600 1598 1598 1597 1596 1595 1594 1592 1590 1589 1587 1586 1584 1583 1581 1580 1578 1576 1575 1574 1573 1572 1571 1569 1568 1567 1566 1565 1564 1563
1620 1620 1621 1621 1622 1622 1623 1623 1624 1624 1625 1625 1625 1625 1625 1625 1625 1625 1625 1625 1624 1624 1624 1623 1623 1622 1622 1621 1620 1619 1618 1617 1616 1614 1613 1612 1610 1609 1607 1606 1604 1603 1602 1600 1599 1598 1597 1597 1596 1594 1593 1591 1589 1588 1587 1585 1584 1582 1581 1579 1578 1576 1575 1574 1572 1571 1570 1569 1567 1566 1565 1564 1563 1562
1618 1619 1620 1620 1621 1621 1622 1622 1623 1623 1624 1624 1624 1624 1624 1624 1624 1624 1624 1624 1624 1623 1623 1623 1622 1622 1621 1620 1620 1619 1618 1616 1615 1614 1613 1612 1610 1609 1607 1605 1604 1603 1601 1599 1598 1598 1597 1596 1595 1594 1592 1590 1589 1588 1586 1585 1584 1582 1581 1579 1578 1576 1575 1573 1572 1570 1569 1568 1566 1565 1564 1562 1561 1560
1617 1618 1618 1619 1619 1620 1620 1621 1621 1622 1622 1623 1623 1623 1624 1624 1624 1624 1623 1623 1623 1623 1622 1622 1622 1621 1621 1620 1619 1618 1617 1616 1615 1614 1613 1611 1610 1609 1607 1605 1603 1602 1600 1599 1598 1598 1597 1596 1595 1593 1592 1590 1589 1587 1586 1585 1583 1582 1581 1579 1577 1576 1574 1573 1571 1570 1568 1566 1565 1564 1562 1561 1560 1559
1616 1616 1617 1618 1618 1619 1619 1620 1620 1621 1621 1622 1622 1622 1623 1623 1623 1623 1622 1622 1621 1621 1621 1621 1621 1621 1620 1619 1618 1618 1617 1616 1615 1614 1612 1611 1610 1608 1607 1605 1603 1601 1599 1598 1598 1597 1596 1595 1594 1593 1591 1590 1588 1587 1586 1584 1583 1582 1581 1579 1577 1575 1574 1572 1570 1568 1567 1565 1564 1562 1561 1560 1559 1558
1614 1615 1616 1616 1617 1617 1618 1618 1619 1619 1620 1620 1621 1621 1621 1621 1622 1621 1621 1621 1620 1620 1620 1620 1620 1620 1619 1619 1618 1617 1616 1615 1615 1613 1612 1611 1610 1608 1606 1605 1603 1601 1599 1598 1597 1596 1595 1594 1593 1592 1591 1589 1588 1587 1586 1585 1583 1582 1580 1578 1576 1575 1573 1571 1569 1568 1566 1564 1563 1561 1560 1559 1558 1557
1613 1613 1614 1615 1615 1616 1616 1617 1617 1618 1618 1619 1619 1620 1620 1620 1620 1620 1620 1620 1619 1619 1619 1619 1619 1619 1618 1618 1617 1616 1616 1615 1614 1613 1612 1610 1609 1608 1606 1605 1603 1601 1598 1598 1597 1596 1595 1594 1592 1591 1591 1589 1588 1587 1586 1585 1583 1581 1580 1578 1576 1574 1573 1571 1569 1567 1565 1564 1562 1561 1559 1558 1557 1556
1611 1612 1612 1613 1614 1614 1615 1615 1616 1616 1617 1617 1618 1618 1618 1618 1619 1619 1618 1618 1618 1617 1617 1618 1618 1618 1617 1617 1616 1616 1615 1614 1613 1612 1611 1610 1609 1608 1606 1604 1603 1601 1598 1597 1597 1596 1595 1593 1592 1591 1590 1589 1588 1587 1586 1585 1583 1582 1580 1578 1576 1574 1572 1571 1569 1567 1565 1563 1562 1560 1559 1558 1557 1556
1609 1610 1610 1611 1612 1612 1613 1614 1614 1615 1615 1616 1616 1616 1616 1617 1617 1617 1617 1617 1616 1616 1616 1616 1616 1616 1616 1616 1615 1615 1614 1614 1613 1612 1611 1609 1608 1607 1606 1604 1603 1601 1598 1596 1596 1595 1594 1593 1592 1591 1590 1589 1588 1587 1586 1585 1584 1582 1580 1578 1576 1575 1573 1570 1568 1567 1565 1563 1562 1560 1559 1558 1557 1555
1607 1608 1609 1609 1610 1610 1611 1612 1612 1613 1613 1614 1614 1614 1615 1615 1615 1615 1615 1615 1615 1615 1615 1614 1615 1615 1615 1614 1614 1614 1613 1612 1611 1610 1609 1609 1608 1607 1606 1604 1603 1601 1599 1597 1596 1595 1594 1593 1592 1591 1590 1589 1588 1587 1586 1585 1584 1582 1580 1578 1577 1575 1573 1570 1568 1567 1565 1563 1562 1560 1558 1557 1556 1555
1605 1605 1606 1607 1608 1608 1609 1609 1610 1611 1611 1612 1612 1613 1613 1613 1613 1613 1613 1613 1613 1613 1613 1613 1613 1613 1613 1613 1612 1612 1612 1611 1610 1609 1608 1607 1606 1606 1605 1603 1602 1601 1599 1597 1595 1594 1594 1593 1592 1591 1590 1589 1588 1587 1586 1585 1584 1582 1580 1578 1577 1575 1573 1571 1568 1567 1565 1564 1562 1560 1558 1557 1556 1555
1602 1603 1604 1604 1605 1606 1606 1607 1608 1608 1609 1609 1610 1610 1611 1611 1611 1611 1612 1612 1612 1611 1611 1611 1611 1611 1611 1611 1610 1610 1610 1609 1608 1607 1606 1605 1604 1604 1603 1603 1602 1600 1599 1597 1595 1593 1592 1592 1592 1591 1590 1589 1588 1587 1586 1585 1584 1582 1580 1578 1577 1575 1573 1571 1569 1567 1565 1564 1562 1560 1558 1557 1556 1555
1600 1600 1601 1601 1602 1603 1603 1604 1605 1606 1606 1607 1607 1608 1608 1609 1609 1609 1610 1610 1609 1609 1609 1609 1609 1609 1608 1608 1608 1608 1608 1607 1606 1606 1605 1604 1602 1602 1601 1601 1601 1600 1599 1598 1596 1594 1592 1592 1591 1591 1590 1589 1588 1587 1586 1585 1583 1581 1580 1578 1576 1575 1573 1571 1569 1567 1566 1564 1562 1560 1558 1557 1555 1554
1597 1597 1598 1599 1599 1600 1600 1601 1602 1603 1604 1604 1605 1605 1606 1606 1607 1607 1607 1607 1607 1607 1607 1607 1607 1606 1606 1606 1606 1606 1605 1605 1605 1604 1603 1602 1601 1600 1599 1599 1599 1598 1597 1596 1595 1594 1592 1592 1591 1590 1589 1588 1587 1586 1585 1584 1583 1581 1579 1578 1576 1575 1573 1571 1569 1568 1566 1564 1562 1561 1559 1557 1555 1554
1593 1594 1595 1595 1596 1596 1597 1598 1599 1599 1600 1601 1601 1602 1602 1603 1604 1604 1604 1604 1604 1604 1604 1604 1604 1603 1603 1603 1604 1603 1603 1603 1603 1602 1601 1601 1600 1599 1598 1597 1596 1596 1596 1595 1594 1592 1591 1590 1590 1589 1588 1588 1586 1585 1584 1583 1582 1580 1579 1577 1576 1574 1573 1571 1569 1568 1566 1564 1562 1561 1559 1557 1555 1554
1590 1591 1591 1592 1592 1593 1594 1595 1595 1596 1597 1597 1598 1598 1599 1599 1600 1601 1601 1601 1601 1601 1601 1600 1600 1600 1600 1600 1601 1601 1601 1601 1600 1600 1599 1599 1598 1597 1596 1595 1595 1594 1593 1593 1592 1591 1589 1588 1588 1587 1586 1586 1585 1584 1583 1582 1581 1579 1578 1576 1575 1574 1572 1571 1569 1567 1565 1564 1562 1561 1559 1557 1555 1554
1586 1587 1587 1588 1588 1589 1590 1591 1592 1593 1593 1594 1594 1595 1595 1596 1596 1597 1598 1598 1598 1598 1597 1597 1597 1597 1597 1597 1598 1598 1599 1598 1598 1598 1597 1597 1596 1596 1595 1594 1593 1593 1592 1591 1590 1589 1587 1586 1586 1586 1585 1584 1583 1582 1581 1580 1579 1578 1576 1575 1574 1573 1572 1570 1568 1567 1565 1564 1562 1561 1559 1557 1555 1553
1582 1583 1584 1584 1585 1586 1586 1587 1589 1590 1590 1591 1591 1591 1592 1592 1593 1593 1594 1594 1594 1594 1593 1593 1593 1594 1594 1594 1595 1595 1596 1596 1595 1595 1595 1595 1594 1594 1593 1592 1592 1591 1590 1590 1588 1588 1586 1585 1584 1584 1583 1583 1582 1580 1579 1578 1577 1576 1574 1573 1572 1571 1570 1569 1568 1566 1565 1563 1562 1560 1559 1557 1555 1553
1578 1579 1580 1580 1581 1582 1582 1584 1585 1586 1587 1587 1587 1588 1588 1589 1589 1589 1590 1590 1590 1590 1590 1589 1589 1590 1591 1591 1592 1592 1592 1593 1593 1593 1592 1592 1592 1591 1590 1590 1589 1589 1589 1588 1587 1586 1585 1584 1583 1582 1582 1581 1580 1579 1577 1577 1575 1574 1572 1571 1571 1570 1569 1568 1567 1566 1564 1563 1561 1560 1558 1556 1555 1553
1574 1575 1576 1576 1577 1578 1579 1580 1582 1583 1583 1584 1584 1584 1585 1585 1585 1585 1586 1587 1587 1587 1586 1586 1586 1587 1588 1588 1589 1589 1589 1589 1590 1589 1589 1589 1589 1589 1588 1587 1587 1586 1586 1586 1585 1584 1584 1583 1581 1580 1580 1580 1579 1577 1575 1575 1574 1572 1571 1570 1569 1568 1568 1567 1566 1565 1564 1563 1561 1559 1558 1556 1554 1553
1569 1570 1571 1572 1573 1574 1575 1576 1578 1579 1580 1580 1580 1580 1581 1582 1582 1582 1582 1583 1583 1583 1583 1583 1583 1584 1585 1585 1586 1586 1586 1586 1586 1586 1585 1586 1586 1586 1585 1585 1585 1585 1584 1583 1582 1582 1582 1581 1580 1579 1578 1578 1577 1575 1574 1573 1572 1571 1570 1569 1568 1567 1566 1566 1565 1564 1563 1562 1561 1559 1557 1555 1554 1553
1564 1565 1567 1568 1569 1570 1571 1573 1574 1575 1576 1576 1576 1576 1577 1577 1577 1578 1579 1579 1580 1580 1580 1580 1580 1581 1582 1582 1582 1582 1582 1583 1583 1582 1582 1583 1583 1583 1582 1582 1582 1582 1581 1580 1580 1580 1579 1579 1578 1577 1576 1575 1575 1574 1573 1571 1570 1569 1568 1567 1566 1565 1565 1564 1564 1563 1562 1561 1560 1559 1557 1555 1554 1552
1559 1560 1561 1563 1564 1565 1567 1569 1570 1571 1571 1572 1572 1573 1573 1573 1573 1574 1576 1576 1576 1576 1576 1577 1577 1577 1578 1578 1578 1578 1578 1578 1578 1578 1579 1579 1579 1579 1579 1579 1579 1579 1579 1578 1577 1577 1577 1576 1576 1575 1575 1574 1573 1571 1571 1570 1569 1568 1567 1566 1565 1564 1564 1563 1563 1563 1562 1561 1560 1558 1557 1555 1554 1552
1554 1555 1556 1557 1559 1561 1563 1565 1566 1566 1567 1568 1568 1569 1568 1568 1569 1571 1572 1573 1573 1573 1572 1573 1573 1573 1574 1574 1573 1574 1574 1574 1574 1575 1575 1575 1575 1575 1576 1576 1576 1576 1576 1575 1574 1574 1574 1574 1574 1573 1573 1573 1571 1569 1569 1569 1567 1566 1565 1564 1564 1563 1563 1562 1562 1562 1561 1560 1559 1558 1556 1555 1554 1552
1548 1549 1551 1552 1554 1556 1558 1560 1561 1562 1562 1563 1564 1564 1564 1564 1567 1568 1569 1569 1569 1569 1568 1568 1569 1569 1569 1569 1569 1570 1570 1570 1570 1571 1571 1571 1571 1572 1572 1573 1573 1572 1572 1571 1571 1571 1571 1571 1571 1571 1570 1570 1570 1568 1567 1567 1566 1564 1563 1563 1562 1562 1562 1562 1562 1561 1560 1559 1558 1557 1556 1555 1553 1552
1543 1544 1546 1548 1550 1552 1554 1555 1557 1557 1558 1559 1559 1559 1560 1561 1563 1564 1565 1565 1565 1564 1563 1563 1564 1564 1565 1565 1565 1566 1566 1566 1567 1567 1567 1568 1568 1568 1568 1569 1569 1569 1569 1569 1568 1568 1568 1568 1568 1568 1567 1567 1567 1566 1565 1564 1563 1563 1562 1561 1561 1561 1560 1561 1561 1560 1560 1559 1558 1557 1555 1554 1553 1551
1538 1539 1541 1543 1546 1548 1549 1551 1552 1553 1554 1554 1554 1555 1557 1558 1559 1560 1560 1560 1560 1560 1559 1559 1559 1559 1560 1561 1561 1561 1562 1563 1563 1564 1564 1564 1564 1564 1564 1564 1564 1565 1566 1565 1565 1565 1565 1564 1564 1564 1564 1564 1564 1564 1563 1563 1561 1561 1560 1559 1559 1559 1559 1559 1559 1559 1559 1559 1558 1556 1555 1554 1552 1551
1533 1534 1536 1538 1541 1543 1544 1546 1548 1549 1549 1549 1550 1552 1553 1554 1555 1555 1555 1555 1556 1556 1555 1554 1554 1554 1556 1557 1557 1557 1559 1559 1559 1560 1560 1560 1560 1560 1560 1560 1560 1560 1561 1561 1561 1561 1561 1561 1560 1560 1561 1561 1561 1561 1561 1561 1560 1559 1558 1558 1557 1557 1557 1557 1557 1557 1557 1557 1557 1556 1555 1554 1552 1551
1528 1530 1531 1534 1537 1538 1540 1542 1543 1544 1544 1545 1546 1547 1549 1550 1550 1550 1550 1551 1552 1551 1551 1550 1550 1550 1552 1553 1553 1554 1555 1555 1555 1555 1556 1556 1556 1556 1556 1555 1555 1555 1555 1556 1557 1557 1557 1557 1556 1555 1556 1556 1557 1558 1558 1558 1557 1556 1556 1556 1556 1555 1556 1556 1556 1556 1556 1556 1556 1555 1555 1554 1553 1551
1524 1526 1528 1530 1532 1533 1535 1536 1537 1538 1539 1540 1541 1542 1543 1544 1544 1544 1545 1546 1546 1546 1546 1546 1546 1547 1548 1549 1549 1550 1550 1550 1550 1551 1552 1552 1552 1552 1552 1551 1551 1551 1551 1551 1552 1552 1552 1552 1552 1551 1550 1551 1552 1554 1555 1555 1555 1554 1554 1554 1554 1553 1553 1554 1554 1554 1554 1554 1554 1554 1553 1553 1552 1551
1519 1521 1523 1525 1527 1528 1530 1531 1532 1533 1534 1535 1535 1536 1537 1537 1538 1539 1540 1541 1541 1542 1542 1542 1543 1543 1544 1545 1545 1545 1546 1546 1546 1547 1547 1547 1547 1547 1548 1547 1547 1546 1546 1547 1547 1548 1549 1549 1548 1547 1546 1546 1547 1549 1551 1552 1551 1551 1551 1552 1552 1552 1551 1552 1552 1552 1552 1552 1552 1552 1552 1551 1550 1549
1516 1518 1519 1521 1522 1522 1523 1524 1525 1526 1527 1528 1528 1530 1531 1532 1533 1534 1535 1536 1536 1536 1537 1538 1538 1539 1539 1540 1541 1541 1541 1542 1542 1543 1543 1543 1543 1543 1543 1542 1542 1542 1542 1542 1543 1544 1545 1545 1545 1544 1544 1543 1544 1545 1546 1548 1548 1548 1548 1549 1549 1550 1549 1549 1550 1550 1550 1550 1550 1550 1550 1550 1549 1548
1512 1513 1514 1515 1516 1516 1517 1518 1519 1520 1521 1521 1523 1524 1525 1527 1528 1529 1529 1530 1530 1531 1532 1533 1533 1534 1535 1535 1536 1537 1537 1537 1537 1538 1538 1539 1539 1538 1538 1537 1537 1537 1537 1537 1538 1539 1540 1541 1541 1541 1541 1540 1540 1541 1542 1544 1544 1545 1545 1545 1547 1547 1547 1548 1548 1548 1548 1548 1548 1549 1549 1548 1548 1547
1508 1508 1509 1510 1510 1511 1511 1512 1513 1515 1515 1516 1517 1518 1520 1521 1522 1522 1523 1524 1525 1526 1527 1528 1528 1529 1530 1530 1531 1531 1531 1532 1533 1533 1533 1534 1534 1533 1532 1532 1533 1533 1533 1533 1534 1535 1536 1537 1538 1539 1538 1536 1536 1537 1538 1540 1541 1541 1542 1543 1544 1545 1545 1546 1546 1547 1547 1547 1547 1547 1547 1547 1546 1546
1504 1505 1505 1505 1505 1505 1505 1506 1507 1509 1510 1511 1512 1513 1514 1515 1516 1516 1517 1518 1520 1521 1522 1522 1523 1524 1524 1524 1525 1525 1525 1526 1527 1528 1528 1529 1529 1528 1527 1527 1528 1529 1530 1530 1531 1532 1533 1535 1536 1537 1537 1535 1532 1532 1533 1536 1537 1537 1538 1539 1541 1542 1543 1544 1545 1546 1545 1545 1545 1545 1545 1545 1545 1544
1500 1499 1499 1500 1500 1500 1500 1501 1502 1504 1505 1506 1507 1508 1508 1508 1509 1509 1511 1513 1515 1516 1516 1517 1517 1518 1518 1519 1519 1520 1520 1521 1522 1522 1522 1523 1523 1523 1523 1523 1524 1525 1526 1527 1528 1529 1530 1532 1534 1535 1535 1534 1530 1528 1528 1530 1532 1533 1534 1536 1537 1539 1541 1542 1543 1544 1544 1544 1544 1543 1543 1544 1543 1542
1494 1493 1493 1494 1495 1495 1496 1496 1497 1498 1500 1501 1502 1502 1503 1502 1503 1504 1506 1508 1510 1510 1510 1511 1512 1512 1513 1514 1514 1514 1514 1515 1515 1516 1517 1518 1518 1519 1519 1519 1519 1520 1521 1523 1524 1526 1527 1528 1531 1533 1534 1533 1530 1525 1523 1525 1528 1529 1531 1533 1534 1536 1537 1539 1541 1542 1542 1542 1541 1541 1541 1541 1541 1540
1487 1488 1489 1489 1490 1491 1491 1492 1492 1493 1494 1496 1497 1497 1497 1498 1498 1499 1501 1502 1503 1503 1505 1506 1506 1506 1507 1508 1508 1509 1509 1509 1510 1511 1511 1512 1513 1514 1514 1515 1515 1516 1518 1519 1520 1521 1523 1524 1527 1529 1531 1531 1529 1524 1519 1519 1522 1524 1527 1529 1531 1533 1534 1536 1538 1539 1540 1540 1539 1539 1539 1538 1538 1538
1482 1483 1484 1484 1485 1486 1487 1487 1488 1488 1489 1491 1492 1492 1492 1493 1493 1494 1495 1495 1496 1498 1499 1499 1500 1501 1502 1503 1503 1504 1504 1504 1504 1505 1506 1507 1507 1508 1510 1510 1511 1513 1514 1514 1515 1516 1517 1520 1522 1524 1526 1526 1526 1523 1518 1515 1517 1520 1523 1526 1528 1530 1531 1533 1535 1537 1538 1538 1537 1537 1536 1536 1536 1535
1477 1478 1478 1479 1480 1481 1482 1482 1483 1483 1485 1486 1486 1487 1488 1488 1488 1489 1489 1490 1491 1492 1493 1494 1495 1496 1497 1497 1498 1499 1499 1499 1500 1500 1501 1501 1502 1503 1504 1505 1507 1508 1509 1509 1509 1510 1511 1514 1516 1519 1520 1522 1523 1522 1519 1515 1514 1516 1519 1522 1525 1527 1529 1530 1532 1534 1535 1535 1535 1535 1534 1534 1533 1533
1472 1473 1473 1474 1475 1476 1476 1477 1478 1479 1480 1480 1481 1482 1483 1483 1483 1484 1485 1486 1487 1487 1488 1488 1489 1490 1491 1492 1493 1494 1495 1495 1495 1496 1496 1496 1497 1498 1499 1500 1502 1504 1504 1503 1503 1502 1504 1508 1511 1513 1515 1517 1518 1519 1517 1514 1512 1513 1515 1518 1520 1523 1526 1528 1529 1531 1533 1533 1533 1532 1532 1531 1531 1531
1466 1467 1467 1468 1469 1470 1471 1471 1472 1473 1474 1475 1476 1477 1477 1477 1478 1479 1480 1481 1481 1482 1483 1483 1483 1484 1485 1486 1487 1488 1490 1490 1491 1491 1491 1491 1492 1493 1494 1495 1496 1498 1498 1497 1496 1497 1499 1502 1504 1506 1508 1511 1512 1513 1512 1510 1510 1511 1513 1515 1518 1520 1522 1525 1527 1528 1530 1530 1531 1530 1530 1529 1528 1528
1460 1461 1462 1462 1463 1464 1465 1466 1467 1468 1468 1469 1470 1471 1472 1472 1473 1474 1475 1475 1475 1476 1477 1477 1478 1478 1479 1480 1481 1482 1484 1485 1486 1486 1486 1486 1486 1486 1487 1489 1492 1493 1492 1492 1492 1493 1495 1496 1498 1500 1502 1504 1506 1508 1507 1506 1507 1509 1511 1513 1515 1518 1520 1522 1524 1525 1527 1527 1528 1527 1527 1526 1525 1525
1454 1455 1456 1456 1457 1459 1459 1460 1461 1462 1463 1463 1464 1464 1465 1466 1468 1469 1470 1470 1469 1469 1471 1472 1472 1472 1473 1474 1475 1476 1477 1478 1480 1480 1478 1478 1478 1478 1479 1483 1487 1487 1485 1485 1487 1488 1489 1491 1493 1495 1497 1499 1502 1504 1504 1504 1505 1507 1509 1511 1513 1515 1517 1519 1520 1522 1523 1524 1524 1524 1524 1523 1522 1521
1449 1449 1450 1451 1452 1453 1454 1455 1456 1456 1457 1457 1457 1458 1460 1462 1464 1465 1465 1465 1464 1464 1466 1467 1467 1467 1467 1468 1469 1470 1471 1472 1473 1472 1471 1472 1473 1473 1474 1477 1480 1480 1480 1480 1482 1483 1484 1487 1489 1490 1493 1496 1499 1501 1501 1502 1504 1506 1508 1509 1510 1512 1513 1515 1517 1518 1519 1519 1520 1520 1520 1519 1518 1517